Location: Errabaliem
(16.8108°N, 80.4255°E)
Time: 11:55:23
(UTC+00:00)

Resurs 01 Rocket - Pass Details

Date: 05 August 2024
Orbit: 630 x 639 km, 97.8° (Epoch: 12 September)

Event Time Altitude Azimuth Distance (km) Brightness Sun altitude
Exits shadow 14:30:00 41° 112° (ESE) 910 1.9 -19.0°
Maximum altitude 14:30:51 48° 77° (ENE) 831 1.8 -19.1°
Drops below altitude 10° 14:35:04 10° 3° (N) 2,016 4.5 -20.1°
Sets 14:37:20 0° 358° (N) 2,927 5.4 -20.5°
